Location: California Institute of Technology
(34.1357°N, 118.1263°W)
Time: 13:14:54
(UTC-08:00)

OTV 5 (USA 277) - Visible Passes

Search period start: 17 November 2017 00:00
Search period end: 27 November 2017 00:00
Orbit: 404 x 417 km, 43.0° (Epoch: 07 September)

Date Brightness Start Highest point End Pass type
(mag) Time Alt. Az. Time Alt. Az. Time Alt. Az.
17 Nov ? 04:25:51 14° NE 04:25:51 14° NE 04:26:48 10° NE visible
17 Nov ? 05:59:09 10° NW 06:02:18 42° NNE 06:05:27 10° E visible
18 Nov ? 05:10:01 24° NNW 05:11:09 30° NNE 05:14:06 10° E visible
19 Nov ? 04:21:27 18° NE 04:21:27 18° NE 04:22:43 10° ENE visible
19 Nov ? 05:54:14 10° WNW 05:57:31 76° SSW 06:00:47 10° SE visible
20 Nov ? 05:05:42 46° NW 05:06:27 66° NNE 05:09:43 10° ESE visible
21 Nov ? 04:17:14 20° E 04:17:14 20° E 04:18:30 10° E visible
21 Nov ? 05:50:01 11° W 05:52:33 26° SW 05:55:20 10° SSE visible
22 Nov ? 05:01:37 43° SSW 05:01:37 43° SSW 05:04:43 10° SE visible
23 Nov ? 04:13:16 14° SE 04:13:16 14° SE 04:13:50 10° SE visible
24 Nov ? 04:57:46 13° SSW 04:57:46 13° SSW 04:58:33 10° S visible
